DW0529 Weather Reports


Display with metric or nautical units.
time (UTC)temp
F
wind
direction
speed
MPH
gust
MPH
rain 1hr
in
rain 24hr
in
rain mn
in
humidity
%
barometer
mb
20260502205042 69 195 3.0 9.0 0.00 0.00 0.00 68 968.2
20260502204016 71 190 1.0 7.0 0.00 0.00 0.00 65 968.3
20260502203009 70 223 1.0 3.0 0.00 0.00 0.00 66 968.2
20260502202022 69 150 1.0 5.0 0.00 0.00 0.00 68 968.2
20260502201045 69 146 1.0 5.0 0.00 0.00 0.00 66 968.4
20260502200042 70 162 1.0 4.0 0.00 0.00 0.00 68 968.4
20260502195055 68 213 1.0 5.0 0.00 0.00 0.00 69 968.7
20260502194053 66 227 1.0 5.0 0.00 0.00 0.00 71 968.7
20260502193043 66 161 0.0 4.0 0.00 0.00 0.00 74 968.9
20260502184641 62 210 1.0 4.0 0.00 0.00 0.00 98 969.4
20260502183643 61 192 1.0 4.0 0.00 0.00 0.00 100 969.6
20260502182652 60 171 0.0 4.0 0.00 0.00 0.00 100 969.5
20260502181710 59 90 1.0 3.0 0.00 0.00 0.00 100 969.5
20260502180716 58 205 0.0 0.0 0.00 0.00 0.00 100 969.6
20260502163620 56 205 0.0 0.0 0.00 0.00 0.00 100 970.1
20260502162637 56 205 0.0 3.0 0.00 0.00 0.00 100 970.0
20260502161630 55 206 1.0 4.0 0.00 0.00 0.00 100 970.1
20260502160606 56 211 1.0 4.0 0.00 0.00 0.00 100 970.0
20260502151531 55 213 0.0 0.0 0.00 0.00 0.00 100 969.7
20260502150522 55 213 0.0 0.0 0.00 0.00 0.00 99 969.6
20260502130304 54 213 0.0 0.0 0.00 0.00 0.00 98 968.9
20260502123237 54 213 0.0 1.0 0.00 0.00 0.00 98 968.8
20260502122236 54 213 0.0 0.0 0.00 0.00 0.00 98 968.8
20260502121211 54 213 0.0 2.0 0.00 0.00 0.00 98 968.8
20260502120211 54 213 0.0 0.0 0.00 0.00 0.00 98 968.8
20260502114052 53 213 0.0 0.0 0.00 0.00 0.00 98 968.6
20260502111920 52 213 0.0 0.0 0.00 0.00 0.00 98 968.4
20260502110927 52 213 0.0 0.0 0.00 0.00 0.00 98 968.5
20260502103637 55 213 0.0 0.0 0.00 0.00 0.00 98 968.1
20260502102645 55 213 0.0 0.0 0.00 0.00 0.00 98 968.2
20260502100530 55 213 0.0 0.0 0.00 0.00 0.00 98 968.1
20260502090426 54 213 0.0 0.0 0.00 0.00 0.00 98 968.5
20260502071331 55 213 0.0 0.0 0.00 0.00 0.00 97 969.3
20260502070316 55 213 0.0 0.0 0.00 0.00 0.00 97 969.2
20260502065251 54 213 0.0 0.0 0.00 0.00 0.00 96 969.2
20260502064314 55 213 0.0 0.0 0.00 0.00 0.00 96 969.2
20260502063244 55 213 0.0 0.0 0.00 0.00 0.00 96 969.1
20260502062258 55 213 0.0 0.0 0.00 0.00 0.00 96 969.0
20260502061321 55 213 0.0 0.0 0.00 0.00 0.00 96 968.9
20260502060337 55 213 0.0 0.0 0.00 0.00 0.00 95 969.0
20260502055307 55 213 0.0 0.0 0.00 0.00 0.00 95 968.9
20260502054246 55 213 0.0 0.0 0.00 0.00 0.00 95 969.1
20260502053259 55 213 0.0 0.0 0.00 0.00 0.00 95 969.0
20260502052315 56 213 0.0 0.0 0.00 0.00 0.00 95 969.1
20260502051309 56 213 0.0 0.0 0.00 0.00 0.00 94 969.1
20260502050256 56 213 0.0 0.0 0.00 0.00 0.00 94 968.9
20260502045255 56 213 0.0 0.0 0.00 0.00 0.00 93 968.9
20260502044252 56 213 0.0 1.0 0.00 0.00 0.00 92 968.9
20260502042123 56 213 0.0 0.0 0.00 0.00 0.00 91 968.6
20260502041123 56 213 0.0 0.0 0.00 0.00 0.00 90 968.5
20260502040142 57 213 0.0 0.0 0.00 0.00 0.00 89 968.3
20260502034026 57 213 0.0 1.0 0.00 0.00 0.00 88 967.9
20260502033005 57 213 0.0 1.0 0.00 0.00 0.00 87 967.6
20260502032005 58 213 0.0 0.0 0.00 0.00 0.00 86 967.5
20260502030935 58 213 0.0 0.0 0.00 0.00 0.00 85 967.5
20260502025907 58 213 0.0 0.0 0.00 0.00 0.00 84 967.4
20260502024906 59 213 0.0 0.0 0.00 0.00 0.00 84 967.4
20260502023924 60 213 0.0 0.0 0.00 0.00 0.00 82 967.4
20260502022934 60 213 0.0 0.0 0.00 0.00 0.00 80 967.3
20260502021915 61 213 0.0 0.0 0.00 0.00 0.00 79 967.2
20260502015719 63 213 0.0 1.0 0.00 0.00 0.00 75 967.1
20260502014738 63 213 0.0 1.0 0.00 0.00 0.00 75 967.0
20260502011534 64 168 1.0 4.0 0.00 0.00 0.00 73 967.0
20260502005446 66 177 0.0 5.0 0.00 0.00 0.00 70 967.0
20260502004434 66 182 0.0 5.0 0.00 0.00 0.00 69 967.0
20260502003448 67 201 1.0 3.0 0.00 0.00 0.00 69 967.1
20260502002428 68 148 0.0 3.0 0.00 0.00 0.00 66 967.0
20260502001444 68 171 0.0 5.0 0.00 0.00 0.00 67 967.0
20260502000439 68 186 1.0 8.0 0.00 0.00 0.00 66 967.1
20260501235447 67 213 1.0 8.0 0.00 0.00 0.00 68 967.0
20260501233346 67 259 2.0 9.0 0.00 0.00 0.00 68 967.1
20260501232331 68 225 2.0 9.0 0.00 0.00 0.00 67 967.1
20260501231303 69 214 2.0 6.0 0.00 0.00 0.00 64 967.1
20260501224023 70 212 1.0 4.0 0.00 0.00 0.00 61 967.4
20260501223029 70 238 1.0 5.0 0.00 0.00 0.00 63 967.6
20260501214824 70 229 1.0 5.0 0.00 0.00 0.00 62 968.2
20260501213804 70 239 2.0 6.0 0.00 0.00 0.00 63 968.3
20260501212750 70 227 2.0 6.0 0.00 0.00 0.00 63 968.3
20260501211740 70 236 2.0 5.0 0.00 0.00 0.00 64 968.5
20260501210757 70 197 1.0 4.0 0.00 0.00 0.00 62 968.6
20260501205753 70 192 1.0 5.0 0.00 0.00 0.00 62 968.6